Greybull, WY

10:20 AM MDT on October 22, 2017 (GMT -0600)
South Big Horn County

Weather History for KGEY - July, 2014

Change the Weather History Date:

Tuesday, July 15, 2014

  Actual Average Record
Temperature  
Mean Temperature 73 °F 74 °F  
Max Temperature 86 °F 91 °F 104 °F (2006)
Min Temperature 60 °F 57 °F 50 °F (2009)
Degree Days  
Heating Degree Days 0 0  
Month to date heating degree days 0 1  
Since 1 June heating degree days 56 71  
Since 1 July heating degree days 0 1  
Cooling Degree Days 8 9  
Month to date cooling degree days 161 120  
Year to date cooling degree days 252 246  
Since 1 June cooling degree days 210 226  
Growing Degree Days 22 (Base 50)    
Moisture  
Dew Point 49 °F    
Average Humidity 55    
Maximum Humidity 84    
Minimum Humidity 25    
Precipitation  
Precipitation 0.06 in 0.02 in 0.06 in (2014)
Month to date precipitation 0.21 0.38  
Year to date precipitation 2.85 4.75  
Sea Level Pressure  
Sea Level Pressure 29.95 in    
Wind  
Wind Speed 8 mph (NNW)    
Max Wind Speed 37 mph    
Max Gust Speed 46 mph    
Visibility 10 miles    
Events Rain , Thunderstorm    
T = Trace of Precipitation, MM = Missing Value Source: NWS Daily Summary

Daily Weather History Graph

Daily Weather History Graph

Search for Another Location

Airport or City:

Trip Planner

Search our weather history database for the weather conditions in past years. The results will help you decide how hot, cold, wet, or windy it might be!

Date:

Astronomy

Jul. 15, 2014 Rise Set
Actual Time 5:41 AM MDT 8:54 PM MDT
Civil Twilight 5:06 AM MDT 9:29 PM MDT
Nautical Twilight 4:20 AM MDT 10:15 PM MDT
Astronomical Twilight 3:24 AM MDT 11:11 PM MDT
Moon 10:51 PM MDT (7/15) 9:50 AM MDT (7/15)
Length of Visible Light 16h 23m
Length of Day
15h 12m
Waning Gibbous, 85% of the Moon is Illuminated
Jul 15
Waning Gibbous
Jul 18
Last Quarter
Jul 26
New
Aug 3
First Quarter
Aug 10
Full

Hourly Weather History & Observations

Time (MDT) Temp. Dew Point Humidity Pressure Visibility Wind Dir Wind Speed Gust Speed Precip Events Conditions
12:53 AM 70.0 °F 46.9 °F 44% 30.00 in 10.0 mi ESE 8.1 mph - N/A   Clear
1:53 AM 69.1 °F 46.9 °F 45% 29.99 in 10.0 mi East 3.5 mph - N/A   Clear
2:53 AM 66.0 °F 46.9 °F 50% 29.97 in 10.0 mi ESE 4.6 mph - N/A   Clear
3:53 AM 64.9 °F 45.0 °F 48% 29.96 in 10.0 mi WSW 5.8 mph - N/A   Clear
4:53 AM 64.9 °F 46.0 °F 50% 29.96 in 10.0 mi Calm Calm - N/A   Clear
5:53 AM 62.1 °F 48.9 °F 62% 29.97 in 10.0 mi Calm Calm - N/A   Clear
6:53 AM 63.0 °F 46.0 °F 54% 29.98 in 10.0 mi Calm Calm - N/A   Clear
7:53 AM 63.0 °F 48.0 °F 58% 29.98 in 10.0 mi West 6.9 mph - N/A   Clear
8:53 AM 68.0 °F 46.0 °F 45% 29.98 in 10.0 mi NW 5.8 mph - N/A   Overcast
9:53 AM 70.0 °F 45.0 °F 41% 29.98 in 10.0 mi NW 12.7 mph - N/A   Overcast
10:53 AM 73.9 °F 45.0 °F 35% 29.97 in 10.0 mi NNW 11.5 mph - N/A   Overcast
11:53 AM 78.1 °F 45.0 °F 31% 29.93 in 10.0 mi North 6.9 mph - N/A   Mostly Cloudy
12:53 PM 81.0 °F 46.0 °F 29% 29.90 in 10.0 mi NW 9.2 mph - N/A   Partly Cloudy
1:53 PM 84.0 °F 45.0 °F 25% 29.85 in 10.0 mi NNW 9.2 mph - N/A   Clear
2:53 PM 84.9 °F 44.1 °F 24% 29.85 in 10.0 mi NNW 8.1 mph - N/A   Clear
3:53 PM 80.1 °F 46.0 °F 30% 29.88 in 10.0 mi NW 29.9 mph 36.8 mph N/A   Scattered Clouds
4:20 PM 75.0 °F 46.0 °F 36% 29.95 in 10.0 mi North 32.2 mph 46.0 mph 0.00 in Rain , Thunderstorm Light Rain
4:42 PM 73.0 °F 48.9 °F 42% 29.97 in 10.0 mi North 11.5 mph 24.2 mph 0.00 in Rain Light Rain
4:53 PM 73.0 °F 48.9 °F 42% 29.90 in 10.0 mi North - - 0.00 in   Partly Cloudy
5:53 PM 66.0 °F 57.9 °F 75% 29.99 in 10.0 mi North - - 0.00 in Rain Light Rain
6:53 PM 63.0 °F 57.9 °F 84% 29.97 in 10.0 mi North - - 0.06 in Rain Light Rain
7:53 PM 64.9 °F 57.9 °F 78% 29.97 in 10.0 mi North - - 0.00 in   Mostly Cloudy
8:53 PM 63.0 °F 57.9 °F 84% 29.97 in 10.0 mi North - - N/A   Partly Cloudy
10:53 PM 61.0 °F 55.0 °F 81% 29.97 in 10.0 mi North - - N/A   Clear
11:53 PM 60.1 °F 55.9 °F 86% 29.98 in 10.0 mi North - - N/A   Partly Cloudy